FREGAT DEB, 45974

Orbit data source: Space-Track

FREGAT DEB, 45974 is space debris in LEO originally from a launch on Mon, 18 Jul 2011 UTC launched from the Tyuratam Missile And Space Complex (TTMTR). Debris objects in space refer to the collection of defunct objects orbiting the Earth. Examples of debris include non-operational satellites, rocket bodies, and fragments generated from explosions, collisions, or faulty payload assembly.

Loading next visibility...
Identifier
45974, 2011-037GF
Orbit
LEO
Country
Flag of CISCIS
Related business
Manufacturer
Lavochkin
Mission
Spacecraft
Bus & Motor
Unknown
Mass
Unknown
Launch date (UTC)
2011-07-18 (14 years ago)
Launch vehicle
Unknown
Launch site
Tyuratam Missile And Space Complex (TTMTR)
Object type
Payload
Rocket body
Debris
Shape & HBR
Unknown shape, 0.1 m
Radar Cross Section
Small (<0.1 m²)

Expand to show TLE details & history
Last TLE update: 1 day ago

TLE from 1 day ago
0 FREGAT DEB
1 45974U 11037GF  25314.13312933  .00000008  00000-0  68089-4 0  9994
2 45974  51.4859 211.1984 2160840 263.0397  72.1660 10.28455585198542
Epoch: 2025-11-10T03:11Z
TLE epoch observation values (Epoch: 2025-11-10T03:11:42.374Z)
Latitude
-0.00002°
Longitude
113.73342°
Altitude
2,368.973 km
Speed
6.822 km/s
True Right ascension
14h 04m 47s
True Declination
0° 00' 00"
Sunlit
Object was in daylight at epoch
Visualization orbit readout
Latitude
Unknown
Longitude
Unknown
Altitude
Unknown
Speed
Unknown
Apparent Right ascension
Unknown
Apparent Declination
Unknown
Sunlit
N/A
Visualization observer readout
Local Sidereal Time
10:05:32
Azimuth
Unknown
Elevation
Unknown
Doppler factor
Unknown
Orbital elements
Apogee altitude
4,484.36 km
Perigee altitude
624.081 km
Semi-major axis
8,932.358 km
Eccentricity
0.21608
Inclination
51.4859°
RAAN
211.1984°
Arg. of periapsis
263.0397°
True anomaly
97.04215°
Mean anomaly
72.166°
Eccentric anomaly
84.48948°
Mean motion
2.57095 °/min
Orbital period
140.03 mins
BSTAR
0.000068089
Loading maneuver chart data...
Computing Atmospheric mass density...
Loading historical data...
Loading historical data...
Loading historical data...
Loading historical data...
Loading historical data...
Loading historical data...
Loading historical data...

Documentation

Showing up to 5 results
|